FENGYUN 3C

Last updated on Sun Apr 12 2026 00:02:26 GMT+0000 (Coordinated Universal Time)

1 39260U 13052A 26101.46887486 .00000086 00000+0 64908-4 0 9996 2 39260 98.4937 78.4260 0013960 211.6178 148.4160 14.15739549649128
UTC large
Height (km)
Speed (km/s)
/
Latitude / Longitude
Inclination (degrees)
Orbital Period (minutes)
Azimuth
Elevation
Range (km)
Doppler Factor

Next 0 passes for location: London (51.5072 / 0.1276)

Sorry there are no passes over London.